User: anonymous   Login
Location: Bats
(43.6587°N, 0.4584°W)
Time: 22:43:51
(UTC+00:00)
Language:

Cosmos 1331 Rocket - Orbit

View from above orbital plane
View from above orbital plane
View from above satellite
View from above satellite

Ground track
Ground track

The orbit is defined by the following mean orbital elements,

1 13028U          26074.54585061 +.00000000 +00000-0 +11076-3 0 00008
2 13028  74.0382 262.2950 0020182 274.9195  84.9656 14.39879849    06
Epoch (UTC): 15 March 2026 13:06:01
Eccentricity: 0.0020182
inclination: 74.0382°
perigee height: 744 km
apogee height: 773 km
right ascension of ascending node: 262.2950°
argument of perigee: 274.9195°
revolutions per day: 14.39879849
mean anomaly at epoch: 84.9656°

The dashed part of the orbit path shows where the satellite is in the earth's shadow,  

DLR